Time,TemperatureF,DewpointF,PressureIn,WindDirection,WindDirectionDegrees,WindSpeedMPH,WindSpeedGustMPH,Humidity,HourlyPrecipIn,Conditions,Clouds,dailyrainin,SoftwareType,DateUTC
2013-05-28 00:09:00,65.2,57.0,30.17,SSW,195,0.0,0.0,76,0.00,,,0.00,weatherlink.com 1.10,2013-05-28 04:09:00,
2013-05-28 00:24:00,64.7,57.0,30.17,SSW,195,0.0,0.0,76,0.00,,,0.00,weatherlink.com 1.10,2013-05-28 04:24:00,
2013-05-28 00:39:00,64.2,57.0,30.16,SSW,195,0.0,0.0,76,0.00,,,0.00,weatherlink.com 1.10,2013-05-28 04:39:00,
2013-05-28 00:54:00,64.0,56.0,30.16,SSW,195,0.0,0.0,75,0.00,,,0.00,weatherlink.com 1.10,2013-05-28 04:54:00,
2013-05-28 01:09:00,64.0,56.0,30.16,SSW,195,0.0,0.0,74,0.00,,,0.00,weatherlink.com 1.10,2013-05-28 05:09:00,
2013-05-28 01:24:00,64.0,56.0,30.16,SSW,195,0.0,0.0,74,0.00,,,0.00,weatherlink.com 1.10,2013-05-28 05:24:00,
2013-05-28 01:39:00,63.9,56.0,30.16,SSW,195,0.0,0.0,75,0.00,,,0.00,weatherlink.com 1.10,2013-05-28 05:39:00,
2013-05-28 01:54:00,63.6,56.0,30.15,SSW,195,0.0,0.0,76,0.00,,,0.00,weatherlink.com 1.10,2013-05-28 05:54:00,
2013-05-28 02:09:00,63.1,55.0,30.16,SSW,195,0.0,0.0,76,0.00,,,0.00,weatherlink.com 1.10,2013-05-28 06:09:00,
2013-05-28 02:24:00,63.1,55.0,30.15,SSW,195,0.0,0.0,76,0.00,,,0.00,weatherlink.com 1.10,2013-05-28 06:24:00,
2013-05-28 02:39:00,63.1,55.0,30.15,SSW,195,0.0,0.0,76,0.00,,,0.00,weatherlink.com 1.10,2013-05-28 06:39:00,
2013-05-28 02:54:00,63.1,56.0,30.15,SSW,195,0.0,0.0,77,0.00,,,0.00,weatherlink.com 1.10,2013-05-28 06:54:00,
2013-05-28 03:09:00,62.8,56.0,30.14,SSW,195,0.0,0.0,78,0.00,,,0.00,weatherlink.com 1.10,2013-05-28 07:09:00,
2013-05-28 03:24:00,62.4,57.0,30.14,WSW,247,0.0,0.0,81,0.00,,,0.00,weatherlink.com 1.10,2013-05-28 07:24:00,
2013-05-28 03:39:00,63.2,58.0,30.14,SSW,201,1.0,2.0,82,0.00,,,0.00,weatherlink.com 1.10,2013-05-28 07:39:00,
2013-05-28 03:54:00,63.3,58.0,30.14,SSW,192,2.0,4.0,82,0.00,,,0.00,weatherlink.com 1.10,2013-05-28 07:54:00,
2013-05-28 04:09:00,63.2,58.0,30.14,South,183,0.0,2.0,84,0.00,,,0.00,weatherlink.com 1.10,2013-05-28 08:09:00,
2013-05-28 04:24:00,63.0,59.0,30.15,South,183,0.0,0.0,85,0.00,,,0.00,weatherlink.com 1.10,2013-05-28 08:24:00,
2013-05-28 04:39:00,63.1,59.0,30.14,SSE,147,0.0,0.0,85,0.00,,,0.00,weatherlink.com 1.10,2013-05-28 08:39:00,
2013-05-28 04:54:00,63.1,59.0,30.14,South,171,0.0,0.0,86,0.00,,,0.00,weatherlink.com 1.10,2013-05-28 08:54:00,
2013-05-28 05:09:00,63.0,59.0,30.14,ESE,116,0.0,1.0,85,0.00,,,0.00,weatherlink.com 1.10,2013-05-28 09:09:00,
2013-05-28 05:24:00,62.9,58.0,30.15,SE,140,1.0,1.0,85,0.00,,,0.00,weatherlink.com 1.10,2013-05-28 09:24:00,
2013-05-28 05:39:00,62.7,59.0,30.16,SE,128,0.0,0.0,86,0.00,,,0.00,weatherlink.com 1.10,2013-05-28 09:39:00,
2013-05-28 05:54:00,62.4,59.0,30.17,South,187,0.0,3.0,87,0.00,,,0.00,weatherlink.com 1.10,2013-05-28 09:54:00,
2013-05-28 06:09:00,62.1,59.0,30.18,South,173,0.0,2.0,88,0.00,,,0.00,weatherlink.com 1.10,2013-05-28 10:09:00,
2013-05-28 06:24:00,61.9,59.0,30.18,South,181,0.0,3.0,89,0.00,,,0.00,weatherlink.com 1.10,2013-05-28 10:24:00,
2013-05-28 06:39:00,61.9,59.0,30.19,South,181,0.0,0.0,89,0.00,,,0.00,weatherlink.com 1.10,2013-05-28 10:39:00,
2013-05-28 06:54:00,61.6,59.0,30.19,South,181,0.0,0.0,90,0.00,,,0.00,weatherlink.com 1.10,2013-05-28 10:54:00,
2013-05-28 07:09:00,61.6,59.0,30.19,SSE,165,0.0,1.0,91,0.00,,,0.00,weatherlink.com 1.10,2013-05-28 11:09:00,
2013-05-28 07:24:00,62.0,59.0,30.19,SSE,165,0.0,0.0,91,0.00,,,0.00,weatherlink.com 1.10,2013-05-28 11:24:00,
2013-05-28 07:40:00,62.5,60.0,30.19,South,189,0.0,1.0,92,0.00,,,0.00,weatherlink.com 1.10,2013-05-28 11:40:00,
2013-05-28 07:55:00,63.4,61.0,30.20,SSW,204,0.0,4.0,91,0.00,,,0.00,weatherlink.com 1.10,2013-05-28 11:55:00,
2013-05-28 08:10:00,64.3,61.0,30.20,SSW,199,3.0,5.0,90,0.00,,,0.00,weatherlink.com 1.10,2013-05-28 12:10:00,
2013-05-28 08:25:00,65.4,62.0,30.20,SE,141,0.0,5.0,89,0.00,,,0.00,weatherlink.com 1.10,2013-05-28 12:25:00,
2013-05-28 08:40:00,66.5,63.0,30.20,SW,219,0.0,4.0,87,0.00,,,0.00,weatherlink.com 1.10,2013-05-28 12:40:00,
2013-05-28 08:55:00,67.0,63.0,30.19,South,175,2.0,4.0,86,0.00,,,0.00,weatherlink.com 1.10,2013-05-28 12:55:00,
2013-05-28 09:10:00,67.6,63.0,30.19,West,272,0.0,4.0,85,0.00,,,0.00,weatherlink.com 1.10,2013-05-28 13:10:00,
2013-05-28 09:25:00,68.5,64.0,30.19,SSW,193,0.0,3.0,84,0.00,,,0.00,weatherlink.com 1.10,2013-05-28 13:25:00,
2013-05-28 09:40:00,69.4,64.0,30.19,SW,215,0.0,6.0,83,0.00,,,0.00,weatherlink.com 1.10,2013-05-28 13:40:00,
2013-05-28 09:55:00,70.4,65.0,30.19,SW,226,0.0,4.0,82,0.00,,,0.00,weatherlink.com 1.10,2013-05-28 13:55:00,
2013-05-28 10:10:00,71.3,64.0,30.19,WNW,298,1.0,2.0,78,0.00,,,0.00,weatherlink.com 1.10,2013-05-28 14:10:00,
2013-05-28 10:25:00,72.0,65.0,30.19,West,280,1.0,3.0,78,0.00,,,0.00,weatherlink.com 1.10,2013-05-28 14:25:00,
2013-05-28 10:40:00,72.8,65.0,30.19,WNW,289,1.0,3.0,76,0.00,,,0.00,weatherlink.com 1.10,2013-05-28 14:40:00,
2013-05-28 10:55:00,73.8,65.0,30.19,SSW,200,2.0,4.0,73,0.00,,,0.00,weatherlink.com 1.10,2013-05-28 14:55:00,
2013-05-28 11:10:00,74.8,65.0,30.19,West,267,0.0,7.0,72,0.00,,,0.00,weatherlink.com 1.10,2013-05-28 15:10:00,
2013-05-28 11:25:00,75.4,65.0,30.18,SSW,211,2.0,5.0,71,0.00,,,0.00,weatherlink.com 1.10,2013-05-28 15:25:00,
2013-05-28 11:40:00,76.2,66.0,30.18,NW,305,2.0,4.0,70,0.00,,,0.00,weatherlink.com 1.10,2013-05-28 15:40:00,
2013-05-28 11:55:00,76.9,66.0,30.18,WNW,294,2.0,6.0,69,0.00,,,0.00,weatherlink.com 1.10,2013-05-28 15:55:00,
2013-05-28 12:10:00,77.3,65.0,30.17,SW,232,3.0,9.0,66,0.00,,,0.00,weatherlink.com 1.10,2013-05-28 16:10:00,
2013-05-28 12:25:00,78.0,66.0,30.16,West,261,2.0,5.0,67,0.00,,,0.00,weatherlink.com 1.10,2013-05-28 16:25:00,
2013-05-28 12:40:00,78.5,67.0,30.16,WNW,298,0.0,6.0,67,0.00,,,0.00,weatherlink.com 1.10,2013-05-28 16:40:00,
2013-05-28 12:55:00,79.3,67.0,30.15,WNW,287,1.0,9.0,65,0.00,,,0.00,weatherlink.com 1.10,2013-05-28 16:55:00,
2013-05-28 13:10:00,79.8,66.0,30.14,SSW,211,3.0,7.0,63,0.00,,,0.00,weatherlink.com 1.10,2013-05-28 17:10:00,
2013-05-28 13:25:00,80.1,65.0,30.14,WNW,302,0.0,8.0,61,0.00,,,0.00,weatherlink.com 1.10,2013-05-28 17:25:00,
2013-05-28 13:40:00,80.7,65.0,30.14,SW,236,3.0,7.0,60,0.00,,,0.00,weatherlink.com 1.10,2013-05-28 17:40:00,
2013-05-28 13:55:00,81.4,65.0,30.14,WSW,249,1.0,9.0,57,0.00,,,0.00,weatherlink.com 1.10,2013-05-28 17:55:00,
2013-05-28 14:11:00,81.5,66.0,30.14,SW,235,1.0,8.0,60,0.00,,,0.00,weatherlink.com 1.10,2013-05-28 18:11:00,
2013-05-28 14:26:00,81.3,64.0,30.14,South,177,2.0,10.0,56,0.00,,,0.00,weatherlink.com 1.10,2013-05-28 18:26:00,
2013-05-28 14:41:00,81.3,65.0,30.13,SSE,165,3.0,8.0,58,0.00,,,0.00,weatherlink.com 1.10,2013-05-28 18:41:00,
2013-05-28 14:56:00,82.1,65.0,30.12,South,190,3.0,7.0,57,0.00,,,0.00,weatherlink.com 1.10,2013-05-28 18:56:00,
2013-05-28 15:11:00,83.2,65.0,30.12,WSW,251,1.0,5.0,54,0.00,,,0.00,weatherlink.com 1.10,2013-05-28 19:11:00,
2013-05-28 15:26:00,82.8,63.0,30.12,West,281,1.0,9.0,52,0.00,,,0.00,weatherlink.com 1.10,2013-05-28 19:26:00,
2013-05-28 15:41:00,82.4,62.0,30.11,SW,227,6.0,9.0,51,0.00,,,0.00,weatherlink.com 1.10,2013-05-28 19:41:00,
2013-05-28 15:56:00,82.1,63.0,30.11,WSW,254,1.0,8.0,53,0.00,,,0.00,weatherlink.com 1.10,2013-05-28 19:56:00,
2013-05-28 16:11:00,82.1,63.0,30.11,WNW,284,5.0,10.0,52,0.00,,,0.00,weatherlink.com 1.10,2013-05-28 20:11:00,
2013-05-28 16:26:00,82.3,63.0,30.11,SSE,166,3.0,6.0,52,0.00,,,0.00,weatherlink.com 1.10,2013-05-28 20:26:00,
2013-05-28 16:41:00,82.0,63.0,30.11,SSW,202,1.0,5.0,53,0.00,,,0.00,weatherlink.com 1.10,2013-05-28 20:41:00,
2013-05-28 16:56:00,80.8,62.0,30.11,SW,215,2.0,8.0,53,0.00,,,0.00,weatherlink.com 1.10,2013-05-28 20:56:00,
2013-05-28 17:11:00,81.6,63.0,30.11,NW,306,1.0,8.0,53,0.00,,,0.00,weatherlink.com 1.10,2013-05-28 21:11:00,
2013-05-28 17:26:00,81.4,62.0,30.11,SSW,208,1.0,6.0,52,0.00,,,0.00,weatherlink.com 1.10,2013-05-28 21:26:00,
2013-05-28 17:41:00,81.1,62.0,30.11,South,182,2.0,7.0,52,0.00,,,0.00,weatherlink.com 1.10,2013-05-28 21:41:00,
2013-05-28 17:56:00,80.4,62.0,30.11,SSW,192,2.0,5.0,54,0.00,,,0.00,weatherlink.com 1.10,2013-05-28 21:56:00,
2013-05-28 18:11:00,80.1,62.0,30.10,WNW,300,0.0,4.0,55,0.00,,,0.00,weatherlink.com 1.10,2013-05-28 22:11:00,
2013-05-28 18:26:00,80.0,62.0,30.10,SSW,206,2.0,10.0,55,0.00,,,0.00,weatherlink.com 1.10,2013-05-28 22:26:00,
2013-05-28 18:41:00,79.6,63.0,30.10,West,280,0.0,7.0,57,0.00,,,0.00,weatherlink.com 1.10,2013-05-28 22:41:00,
2013-05-28 18:56:00,79.1,63.0,30.10,WSW,245,0.0,10.0,58,0.00,,,0.00,weatherlink.com 1.10,2013-05-28 22:56:00,
2013-05-28 19:11:00,78.7,63.0,30.10,WSW,237,0.0,4.0,58,0.00,,,0.00,weatherlink.com 1.10,2013-05-28 23:11:00,
2013-05-28 19:41:00,77.9,63.0,30.10,SSW,194,1.0,2.0,60,0.00,,,0.00,weatherlink.com 1.10,2013-05-28 23:41:00,
2013-05-28 19:56:00,77.3,63.0,30.10,SSW,205,0.0,3.0,61,0.00,,,0.00,weatherlink.com 1.10,2013-05-28 23:56:00,
2013-05-28 20:11:00,76.7,63.0,30.11,SSE,162,1.0,2.0,62,0.00,,,0.00,weatherlink.com 1.10,2013-05-29 00:11:00,
2013-05-28 20:26:00,76.4,63.0,30.11,South,186,0.0,3.0,63,0.00,,,0.00,weatherlink.com 1.10,2013-05-29 00:26:00,
2013-05-28 20:41:00,75.7,63.0,30.10,SSW,195,0.0,3.0,64,0.00,,,0.00,weatherlink.com 1.10,2013-05-29 00:41:00,
2013-05-28 20:56:00,75.3,63.0,30.10,South,191,0.0,2.0,65,0.00,,,0.00,weatherlink.com 1.10,2013-05-29 00:56:00,
2013-05-28 21:11:00,74.7,63.0,30.11,SSW,205,0.0,1.0,66,0.00,,,0.00,weatherlink.com 1.10,2013-05-29 01:11:00,
2013-05-28 21:26:00,74.1,63.0,30.11,SSW,198,0.0,1.0,68,0.00,,,0.00,weatherlink.com 1.10,2013-05-29 01:26:00,
2013-05-28 21:41:00,73.6,63.0,30.11,SSW,198,1.0,2.0,69,0.00,,,0.00,weatherlink.com 1.10,2013-05-29 01:41:00,
2013-05-28 21:56:00,73.3,63.0,30.11,SSW,196,0.0,2.0,71,0.00,,,0.00,weatherlink.com 1.10,2013-05-29 01:56:00,
2013-05-28 22:11:00,72.9,63.0,30.12,SSW,200,0.0,2.0,72,0.00,,,0.00,weatherlink.com 1.10,2013-05-29 02:11:00,
2013-05-28 22:26:00,72.6,63.0,30.12,SSW,196,1.0,3.0,73,0.00,,,0.00,weatherlink.com 1.10,2013-05-29 02:26:00,
2013-05-28 22:41:00,72.3,64.0,30.12,SSE,159,0.0,2.0,74,0.00,,,0.00,weatherlink.com 1.10,2013-05-29 02:41:00,
2013-05-28 22:56:00,72.1,63.0,30.13,SSW,200,0.0,2.0,74,0.00,,,0.00,weatherlink.com 1.10,2013-05-29 02:56:00,
2013-05-28 23:11:00,71.5,64.0,30.12,SSW,192,0.0,1.0,76,0.00,,,0.00,weatherlink.com 1.10,2013-05-29 03:11:00,
2013-05-28 23:26:00,71.4,64.0,30.12,SSW,202,0.0,3.0,76,0.00,,,0.00,weatherlink.com 1.10,2013-05-29 03:26:00,
2013-05-28 23:41:00,71.0,63.0,30.12,South,189,0.0,1.0,77,0.00,,,0.00,weatherlink.com 1.10,2013-05-29 03:41:00,
2013-05-28 23:56:00,70.7,64.0,30.12,South,182,0.0,1.0,78,0.00,,,0.00,weatherlink.com 1.10,2013-05-29 03:56:00,